Weather History for Jefferson, GA

Change the Weather History Date:

Friday, March 22, 2013

  Actual Average (KGVL) Record (KGVL)
Temperature  
Mean Temperature 40 °F 54 °F  
Max Temperature 48 °F 64 °F 84 °F (1935)
Min Temperature 33 °F 44 °F 23 °F (1965)
Degree Days  
Heating Degree Days 24 11  
Month to date heating degree days 300  
Since 1 July heating degree days 2764  
Cooling Degree Days 0 0  
Month to date cooling degree days 0  
Year to date cooling degree days 0  
Moisture  
Dew Point 8 °F    
Average Humidity 26    
Maximum Humidity 44    
Minimum Humidity 13    
Precipitation  
Precipitation 0.00 in 0.16 in 2.82 in (1932)
Month to date precipitation 4.03  
Year to date precipitation 13.93  
Sea Level Pressure  
Sea Level Pressure 30.01 in    
Wind  
Wind Speed 1 mph (SSW)    
Max Wind Speed 6 mph    
Max Gust Speed -    
Visibility 10 miles    
Events      
T = Trace of Precipitation, MM = Missing Value Source: NWS Daily Summary

Daily Weather History Graph

Daily Weather History Graph

Search for Another Location

Airport:

Trip Planner

Search our weather history database for the weather conditions in past years. The results will help you decide how hot, cold, wet, or windy it might be!

Date:

Astronomy

Mar. 22, 2013 Rise Set
Actual Time 7:34 AM EDT 7:47 PM EDT
Civil Twilight 7:09 AM EDT 8:12 PM EDT
Nautical Twilight 6:40 AM EDT 8:41 PM EDT
Astronomical Twilight 6:11 AM EDT 9:11 PM EDT
Moon 3:24 PM EDT (3/22) 4:23 AM EDT (3/22)
Length of Visible Light 13h 02m
Length of Day
12h 12m
Waxing Gibbous, 77% of the Moon is Illuminated
Mar 22
Waxing Gibbous
Mar 27
Full
Apr 3
Last Quarter
Apr 10
New
Apr 18
First Quarter

Hourly Weather History & Observations

Time (EDT) Temp. Windchill Dew Point Humidity Pressure Visibility Wind Dir Wind Speed Gust Speed Precip Events Conditions
12:15 AM 33.8 °F - 1.4 °F 25% 29.96 in 10.0 mi Calm Calm - N/A   Clear
12:35 AM 35.6 °F - -4.0 °F 18% 29.96 in 10.0 mi Calm Calm - N/A   Clear
12:55 AM 33.8 °F - -0.4 °F 23% 29.96 in 10.0 mi Calm Calm - N/A   Clear
1:15 AM 33.8 °F - -0.4 °F 23% 29.96 in 10.0 mi Calm Calm - N/A   Clear
1:35 AM 33.8 °F - 1.4 °F 25% 29.96 in 10.0 mi Calm Calm - N/A   Clear
1:55 AM 33.8 °F - 3.2 °F 28% 29.97 in 10.0 mi Calm Calm - N/A   Clear
2:15 AM 33.8 °F - 5.0 °F 30% 29.97 in 10.0 mi Calm Calm - N/A   Clear
2:35 AM 33.8 °F - 3.2 °F 28% 29.98 in 10.0 mi Calm Calm - N/A   Clear
2:55 AM 33.8 °F - 6.8 °F 32% 29.99 in 10.0 mi Calm Calm - N/A   Clear
3:15 AM 33.8 °F - 10.4 °F 38% 29.99 in 10.0 mi Calm Calm - N/A   Clear
3:35 AM 33.8 °F - 5.0 °F 30% 29.99 in 10.0 mi Calm Calm - N/A   Scattered Clouds
3:55 AM 35.6 °F - 5.0 °F 28% 30.00 in 10.0 mi Calm Calm - N/A   Mostly Cloudy
4:15 AM 35.6 °F 32.8 °F 10.4 °F 35% 30.00 in 10.0 mi West 3.5 mph - N/A   Overcast
4:35 AM 35.6 °F - 8.6 °F 33% 30.00 in 10.0 mi Calm Calm - N/A   Overcast
4:55 AM 35.6 °F - 8.6 °F 33% 30.00 in 10.0 mi Calm Calm - N/A   Overcast
5:15 AM 35.6 °F - 10.4 °F 35% 30.00 in 10.0 mi Calm Calm - N/A   Overcast
5:35 AM 35.6 °F - 10.4 °F 35% 30.01 in 10.0 mi Calm Calm - N/A   Overcast
5:55 AM 35.6 °F - 10.4 °F 35% 30.00 in 10.0 mi Calm Calm - N/A   Overcast
6:15 AM 35.6 °F - 10.4 °F 35% 30.00 in 10.0 mi Calm Calm - N/A   Overcast
6:35 AM 33.8 °F - 14.0 °F 44% 30.01 in 10.0 mi Calm Calm - N/A   Overcast
6:55 AM 35.6 °F - 15.8 °F 44% 30.02 in 10.0 mi Calm Calm - N/A   Overcast
7:15 AM 35.6 °F - 14.0 °F 41% 30.03 in 10.0 mi Calm Calm - N/A   Overcast
7:55 AM 35.6 °F - 15.8 °F 44% 30.03 in 10.0 mi Calm Calm - N/A   Overcast
8:15 AM 35.6 °F - 15.8 °F 44% 30.02 in 10.0 mi Calm Calm - N/A   Overcast
8:35 AM 35.6 °F - 12.2 °F 38% 30.03 in 10.0 mi Calm Calm - N/A   Overcast
8:55 AM 37.4 °F - 8.6 °F 30% 30.03 in 10.0 mi Calm Calm - N/A   Overcast
9:15 AM 37.4 °F - 5.0 °F 26% 30.03 in 10.0 mi Calm Calm - N/A   Overcast
9:35 AM 37.4 °F - 8.6 °F 30% 30.04 in 10.0 mi Calm Calm - N/A   Overcast
9:55 AM 37.4 °F 34.9 °F 3.2 °F 24% 30.04 in 10.0 mi ENE 3.5 mph - N/A   Overcast
10:15 AM 37.4 °F - 3.2 °F 24% 30.05 in 10.0 mi Calm Calm - N/A   Overcast
10:35 AM 39.2 °F - 3.2 °F 22% 30.06 in 10.0 mi Calm Calm - N/A   Overcast
10:55 AM 41.0 °F - 5.0 °F 23% 30.05 in 10.0 mi Calm Calm - N/A   Overcast
11:15 AM 41.0 °F - -5.8 °F 14% 30.04 in 10.0 mi Calm Calm - N/A   Scattered Clouds
11:35 AM 42.8 °F - -2.2 °F 15% 30.05 in 10.0 mi Calm Calm - N/A   Mostly Cloudy
11:55 AM 42.8 °F - -5.8 °F 13% 30.05 in 10.0 mi Calm Calm - N/A   Overcast
12:15 PM 42.8 °F 41.1 °F -4.0 °F 14% 30.05 in 10.0 mi SSW 3.5 mph - N/A   Mostly Cloudy
12:35 PM 42.8 °F 41.1 °F -0.4 °F 16% 30.06 in 10.0 mi SW 3.5 mph - N/A   Mostly Cloudy
12:55 PM 44.6 °F - -2.2 °F 14% 30.05 in 10.0 mi Calm Calm - N/A   Overcast
1:15 PM 44.6 °F 43.1 °F -0.4 °F 15% 30.04 in 10.0 mi SE 3.5 mph - N/A   Overcast
1:35 PM 44.6 °F 42.2 °F -2.2 °F 14% 30.04 in 10.0 mi South 4.6 mph - N/A   Overcast
1:55 PM 44.6 °F 43.1 °F -0.4 °F 15% 30.04 in 10.0 mi SSW 3.5 mph - N/A   Overcast
2:15 PM 44.6 °F 42.2 °F 1.4 °F 17% 30.04 in 10.0 mi SW 4.6 mph - N/A   Mostly Cloudy
2:35 PM 44.6 °F 41.4 °F 1.4 °F 17% 30.03 in 10.0 mi WSW 5.8 mph - N/A   Mostly Cloudy
2:55 PM 44.6 °F 42.2 °F 3.2 °F 18% 30.03 in 10.0 mi WSW 4.6 mph - N/A   Overcast
3:15 PM 46.4 °F - 3.2 °F 17% 30.03 in 10.0 mi Calm Calm - N/A   Overcast
3:35 PM 46.4 °F 45.2 °F 5.0 °F 18% 30.03 in 10.0 mi SSW 3.5 mph - N/A   Overcast
3:55 PM 46.4 °F - 6.8 °F 20% 30.01 in 10.0 mi Calm Calm - N/A   Overcast
4:15 PM 46.4 °F - 5.0 °F 18% 30.00 in 10.0 mi Calm Calm - N/A   Overcast
4:35 PM 46.4 °F 44.3 °F 6.8 °F 20% 30.00 in 10.0 mi South 4.6 mph - N/A   Scattered Clouds
4:55 PM 48.2 °F - 8.6 °F 20% 30.00 in 10.0 mi SSW 3.5 mph - N/A   Mostly Cloudy
5:15 PM 48.2 °F - 8.6 °F 20% 30.00 in 10.0 mi Calm Calm - N/A   Mostly Cloudy
5:55 PM 48.2 °F - 10.4 °F 22% 29.98 in 10.0 mi Calm Calm - N/A   Overcast
6:15 PM 48.2 °F - 10.4 °F 22% 29.99 in 10.0 mi Calm Calm - N/A   Overcast
6:35 PM 48.2 °F - 10.4 °F 22% 30.00 in 10.0 mi Calm Calm - N/A   Overcast
6:55 PM 48.2 °F - 10.4 °F 22% 29.99 in 10.0 mi SSE 4.6 mph - N/A   Overcast
7:15 PM 48.2 °F - 12.2 °F 24% 30.00 in 10.0 mi South 4.6 mph - N/A   Overcast
7:35 PM 46.4 °F 45.2 °F 12.2 °F 25% 30.01 in 10.0 mi South 3.5 mph - N/A   Overcast
7:55 PM 46.4 °F 44.3 °F 14.0 °F 27% 30.01 in 10.0 mi SSW 4.6 mph - N/A   Overcast
8:15 PM 46.4 °F 45.2 °F 14.0 °F 27% 30.01 in 10.0 mi South 3.5 mph - N/A   Overcast
8:35 PM 46.4 °F 45.2 °F 14.0 °F 27% 30.02 in 10.0 mi South 3.5 mph - N/A   Overcast
8:55 PM 46.4 °F - 14.0 °F 27% 30.01 in 10.0 mi Calm Calm - N/A   Overcast
9:15 PM 46.4 °F - 15.8 °F 29% 30.02 in 10.0 mi Calm Calm - N/A   Overcast
9:35 PM 46.4 °F - 15.8 °F 29% 30.03 in 10.0 mi Calm Calm - N/A   Overcast
9:55 PM 46.4 °F - 15.8 °F 29% 30.03 in 10.0 mi Calm Calm - N/A   Overcast
10:15 PM 46.4 °F - 17.6 °F 32% 30.03 in 10.0 mi Calm Calm - N/A   Overcast
10:35 PM 44.6 °F - 15.8 °F 31% 30.02 in 10.0 mi Calm Calm - N/A   Overcast
10:55 PM 44.6 °F - 17.6 °F 34% 30.03 in 10.0 mi Calm Calm - N/A   Overcast
11:15 PM 44.6 °F - 17.6 °F 34% 30.03 in 10.0 mi Calm Calm - N/A   Overcast
11:35 PM 44.6 °F - 17.6 °F 34% 30.02 in 10.0 mi Calm Calm - N/A   Overcast
11:55 PM 44.6 °F - 21.2 °F 39% 30.03 in 10.0 mi Calm Calm - N/A   Overcast